SXATZ EPGD-ESMS

Flight info

Callsign SXATZ
Flight time 1h 6m
Altitude 18000
Route VIZAN DCT XERPA DCT RUMAR DCT ROE
Aircraft BT36/L-BDFGLORY/S

Departure

Time 2026-04-24 13:06
Airport Gdańsk Lech Wałęsa Airport (EPGD)

Arrival

Time 2026-04-24 14:12
Airport Malmö Sturup Airport (ESMS)
Time Latitude Longitude Altitude Speed Heading
2026-04-24 13:03 54.37684 18.47983 459 ft 0 kts 347°
2026-04-24 13:04 54.37685 18.47983 459 ft 2 kts 346°
2026-04-24 13:04 54.37726 18.47906 458 ft 16 kts 295°
2026-04-24 13:04 54.37700 18.47716 457 ft 20 kts 213°
2026-04-24 13:04 54.37620 18.47706 457 ft 8 kts 208°
2026-04-24 13:05 54.37601 18.47563 456 ft 18 kts 263°
2026-04-24 13:05 54.37598 18.47337 455 ft 19 kts 273°
2026-04-24 13:05 54.37660 18.47002 463 ft 59 kts 294°
2026-04-24 13:05 54.37859 18.46177 769 ft 88 kts 292°
2026-04-24 13:06 54.38067 18.45022 1172 ft 113 kts 289°
2026-04-24 13:06 54.38301 18.43622 1551 ft 129 kts 287°
2026-04-24 13:06 54.38577 18.42095 1929 ft 138 kts 292°
2026-04-24 13:06 54.39013 18.40622 2305 ft 138 kts 303°
2026-04-24 13:07 54.39502 18.39214 2677 ft 139 kts 296°
2026-04-24 13:07 54.39922 18.37729 3043 ft 137 kts 294°
2026-04-24 13:07 54.40307 18.36234 3405 ft 138 kts 293°
2026-04-24 13:07 54.40684 18.34718 3757 ft 138 kts 294°
2026-04-24 13:08 54.41058 18.33202 4118 ft 138 kts 293°
2026-04-24 13:08 54.41432 18.31694 4477 ft 136 kts 295°
2026-04-24 13:08 54.41855 18.30242 4833 ft 136 kts 297°
2026-04-24 13:09 54.42707 18.27324 5547 ft 138 kts 296°
2026-04-24 13:09 54.43137 18.25843 5908 ft 140 kts 296°
2026-04-24 13:09 54.43571 18.24338 6221 ft 145 kts 296°
2026-04-24 13:09 54.44026 18.22763 6505 ft 149 kts 296°
2026-04-24 13:10 54.44490 18.21155 6778 ft 151 kts 297°
2026-04-24 13:10 54.44957 18.19528 7048 ft 153 kts 297°
2026-04-24 13:10 54.45429 18.17887 7316 ft 154 kts 296°
2026-04-24 13:10 54.45906 18.16231 7599 ft 155 kts 297°
2026-04-24 13:11 54.46382 18.14571 7873 ft 155 kts 297°
2026-04-24 13:11 54.46861 18.12901 8152 ft 156 kts 297°
2026-04-24 13:11 54.47343 18.11222 8430 ft 157 kts 297°
2026-04-24 13:11 54.47825 18.09536 8714 ft 157 kts 297°
2026-04-24 13:12 54.48310 18.07848 8999 ft 158 kts 297°
2026-04-24 13:12 54.48797 18.06143 9288 ft 160 kts 297°
2026-04-24 13:12 54.49292 18.04415 9579 ft 161 kts 297°
2026-04-24 13:12 54.49790 18.02669 9866 ft 164 kts 297°
2026-04-24 13:13 54.50292 18.00915 10134 ft 164 kts 297°
2026-04-24 13:13 54.50794 17.99156 10399 ft 164 kts 297°
2026-04-24 13:13 54.51287 17.97425 10660 ft 163 kts 297°
2026-04-24 13:13 54.51788 17.95662 10910 ft 165 kts 297°
2026-04-24 13:14 54.52297 17.93878 11166 ft 167 kts 297°
2026-04-24 13:14 54.52810 17.92075 11417 ft 169 kts 298°
2026-04-24 13:14 54.53331 17.90247 11666 ft 170 kts 298°
2026-04-24 13:14 54.53851 17.88413 11918 ft 171 kts 298°
2026-04-24 13:15 54.54374 17.86570 12177 ft 171 kts 298°
2026-04-24 13:15 54.54897 17.84723 12426 ft 172 kts 298°
2026-04-24 13:15 54.55422 17.82873 12688 ft 172 kts 298°
2026-04-24 13:15 54.55945 17.81025 12945 ft 172 kts 298°
2026-04-24 13:16 54.56471 17.79169 13205 ft 172 kts 298°
2026-04-24 13:16 54.56987 17.77338 13464 ft 172 kts 298°
2026-04-24 13:16 54.57512 17.75482 13728 ft 172 kts 298°
2026-04-24 13:16 54.58037 17.73623 13974 ft 172 kts 298°
2026-04-24 13:17 54.58561 17.71767 14214 ft 172 kts 298°
2026-04-24 13:17 54.59077 17.69934 14441 ft 172 kts 298°
2026-04-24 13:17 54.59598 17.68081 14689 ft 172 kts 298°
2026-04-24 13:17 54.60119 17.66227 14930 ft 172 kts 298°
2026-04-24 13:18 54.60642 17.64372 15174 ft 172 kts 298°
2026-04-24 13:18 54.61164 17.62514 15414 ft 172 kts 299°
2026-04-24 13:18 54.61686 17.60653 15660 ft 172 kts 299°
2026-04-24 13:18 54.62206 17.58797 15908 ft 171 kts 299°
2026-04-24 13:19 54.62725 17.56944 16156 ft 171 kts 299°
2026-04-24 13:19 54.63244 17.55096 16409 ft 171 kts 299°
2026-04-24 13:19 54.63762 17.53240 16664 ft 172 kts 299°
2026-04-24 13:19 54.64281 17.51385 16921 ft 171 kts 299°
2026-04-24 13:20 54.64793 17.49552 17176 ft 172 kts 299°
2026-04-24 13:20 54.65310 17.47700 17430 ft 171 kts 299°
2026-04-24 13:20 54.65827 17.45845 17696 ft 171 kts 299°
2026-04-24 13:20 54.66344 17.43989 17964 ft 171 kts 299°
2026-04-24 13:21 54.66876 17.42085 18013 ft 181 kts 299°
2026-04-24 13:21 54.67435 17.40086 18017 ft 188 kts 299°
2026-04-24 13:21 54.68007 17.38023 18022 ft 190 kts 299°
2026-04-24 13:21 54.68581 17.35951 18022 ft 191 kts 299°
2026-04-24 13:22 54.69157 17.33870 18017 ft 192 kts 299°
2026-04-24 13:22 54.69735 17.31785 18020 ft 192 kts 299°
2026-04-24 13:22 54.70312 17.29699 18023 ft 193 kts 299°
2026-04-24 13:22 54.70885 17.27630 18024 ft 193 kts 299°
2026-04-24 13:23 54.71463 17.25538 18020 ft 193 kts 299°
2026-04-24 13:23 54.72042 17.23443 18020 ft 193 kts 299°
2026-04-24 13:23 54.72620 17.21348 18018 ft 193 kts 299°
2026-04-24 13:23 54.73199 17.19246 18023 ft 193 kts 299°
2026-04-24 13:24 54.73778 17.17145 18022 ft 193 kts 298°
2026-04-24 13:24 54.74355 17.15047 18019 ft 193 kts 298°
2026-04-24 13:24 54.74932 17.12948 18021 ft 193 kts 298°
2026-04-24 13:24 54.75509 17.10848 18020 ft 193 kts 298°
2026-04-24 13:25 54.76085 17.08752 18025 ft 193 kts 298°
2026-04-24 13:25 54.76660 17.06653 18025 ft 193 kts 298°
2026-04-24 13:25 54.77179 17.04539 18021 ft 195 kts 290°
2026-04-24 13:25 54.77443 17.02225 18026 ft 196 kts 285°
2026-04-24 13:26 54.77710 16.99909 18009 ft 195 kts 287°
2026-04-24 13:26 54.78025 16.97625 18010 ft 195 kts 288°
2026-04-24 13:26 54.78347 16.95341 18010 ft 195 kts 288°
2026-04-24 13:26 54.78665 16.93061 18010 ft 195 kts 288°
2026-04-24 13:27 54.78980 16.90778 18013 ft 195 kts 288°
2026-04-24 13:27 54.79294 16.88495 18013 ft 195 kts 288°
2026-04-24 13:27 54.79609 16.86212 18013 ft 195 kts 288°
2026-04-24 13:27 54.79923 16.83929 18017 ft 195 kts 288°
2026-04-24 13:28 54.80233 16.81672 18009 ft 195 kts 288°
2026-04-24 13:28 54.80546 16.79390 18009 ft 195 kts 288°
2026-04-24 13:28 54.80858 16.77110 18014 ft 195 kts 288°
2026-04-24 13:28 54.81170 16.74826 18009 ft 195 kts 288°
2026-04-24 13:29 54.81482 16.72540 18013 ft 195 kts 288°
2026-04-24 13:29 54.81794 16.70255 18016 ft 195 kts 288°
2026-04-24 13:29 54.82104 16.67974 18013 ft 194 kts 288°
2026-04-24 13:29 54.82415 16.65683 18013 ft 195 kts 287°
2026-04-24 13:30 54.82725 16.63400 18013 ft 194 kts 288°
2026-04-24 13:30 54.83035 16.61113 18016 ft 194 kts 288°
2026-04-24 13:30 54.83344 16.58828 18013 ft 194 kts 287°
2026-04-24 13:30 54.83653 16.56545 18015 ft 194 kts 287°
2026-04-24 13:31 54.83956 16.54289 18010 ft 194 kts 287°
2026-04-24 13:31 54.84265 16.52001 18010 ft 195 kts 287°
2026-04-24 13:31 54.84572 16.49712 18016 ft 195 kts 287°
2026-04-24 13:31 54.84878 16.47430 18002 ft 194 kts 287°
2026-04-24 13:32 54.85184 16.45151 18005 ft 194 kts 287°
2026-04-24 13:32 54.85489 16.42875 18005 ft 194 kts 287°
2026-04-24 13:32 54.85792 16.40599 18005 ft 194 kts 287°
2026-04-24 13:32 54.86096 16.38321 18005 ft 194 kts 287°
2026-04-24 13:33 54.86401 16.36035 18011 ft 194 kts 287°
2026-04-24 13:33 54.86704 16.33754 18011 ft 194 kts 287°
2026-04-24 13:33 54.87007 16.31475 18011 ft 194 kts 287°
2026-04-24 13:33 54.87305 16.29226 18011 ft 194 kts 287°
2026-04-24 13:34 54.87606 16.26949 18008 ft 194 kts 287°
2026-04-24 13:34 54.87908 16.24668 18008 ft 194 kts 287°
2026-04-24 13:34 54.88208 16.22388 18008 ft 194 kts 287°
2026-04-24 13:34 54.88509 16.20104 18008 ft 194 kts 287°
2026-04-24 13:35 54.88810 16.17818 18008 ft 194 kts 287°
2026-04-24 13:35 54.89109 16.15538 18008 ft 194 kts 287°
2026-04-24 13:35 54.89408 16.13258 18008 ft 194 kts 287°
2026-04-24 13:35 54.89708 16.10972 18008 ft 194 kts 287°
2026-04-24 13:36 54.90006 16.08688 18008 ft 194 kts 287°
2026-04-24 13:36 54.90304 16.06405 18008 ft 194 kts 287°
2026-04-24 13:36 54.90602 16.04116 18008 ft 194 kts 287°
2026-04-24 13:36 54.90899 16.01831 18008 ft 194 kts 287°
2026-04-24 13:37 54.91192 15.99574 18014 ft 194 kts 287°
2026-04-24 13:37 54.91488 15.97293 18015 ft 194 kts 287°
2026-04-24 13:37 54.91784 15.95007 18015 ft 194 kts 287°
2026-04-24 13:37 54.92079 15.92721 18015 ft 194 kts 287°
2026-04-24 13:38 54.92375 15.90432 18009 ft 194 kts 287°
2026-04-24 13:38 54.92670 15.88140 18009 ft 194 kts 287°
2026-04-24 13:38 54.92964 15.85855 18006 ft 194 kts 287°
2026-04-24 13:38 54.93258 15.83567 18006 ft 194 kts 287°
2026-04-24 13:39 54.93547 15.81310 18006 ft 194 kts 287°
2026-04-24 13:39 54.93841 15.79021 18006 ft 194 kts 287°
2026-04-24 13:39 54.94133 15.76728 18006 ft 194 kts 287°
2026-04-24 13:39 54.94425 15.74438 18006 ft 194 kts 287°
2026-04-24 13:40 54.94717 15.72149 18006 ft 194 kts 287°
2026-04-24 13:40 54.95009 15.69857 18006 ft 194 kts 287°
2026-04-24 13:40 54.95299 15.67566 18006 ft 194 kts 287°
2026-04-24 13:40 54.95590 15.65277 18006 ft 194 kts 287°
2026-04-24 13:41 54.95879 15.62987 18006 ft 194 kts 287°
2026-04-24 13:41 54.96169 15.60697 18006 ft 194 kts 287°
2026-04-24 13:41 54.96454 15.58438 18006 ft 194 kts 287°
2026-04-24 13:41 54.96743 15.56146 18006 ft 194 kts 287°
2026-04-24 13:42 54.97030 15.53857 18010 ft 194 kts 287°
2026-04-24 13:42 54.97319 15.51562 18010 ft 194 kts 287°
2026-04-24 13:42 54.97605 15.49271 18010 ft 193 kts 287°
2026-04-24 13:42 54.97892 15.46984 18009 ft 194 kts 287°
2026-04-24 13:43 54.98178 15.44691 17988 ft 193 kts 287°
2026-04-24 13:43 54.98462 15.42411 18000 ft 193 kts 287°
2026-04-24 13:43 54.98747 15.40124 18000 ft 192 kts 287°
2026-04-24 13:43 54.99031 15.37846 18000 ft 192 kts 287°
2026-04-24 13:44 54.99313 15.35568 18000 ft 192 kts 287°
2026-04-24 13:44 54.99592 15.33314 18000 ft 192 kts 287°
2026-04-24 13:44 54.99874 15.31039 18000 ft 192 kts 287°
2026-04-24 13:44 55.00155 15.28760 18000 ft 192 kts 287°
2026-04-24 13:45 55.00437 15.26479 18000 ft 192 kts 287°
2026-04-24 13:45 55.00717 15.24200 18000 ft 192 kts 287°
2026-04-24 13:45 55.00903 15.22689 18000 ft 192 kts 287°
2026-04-24 13:45 55.01183 15.20406 18000 ft 192 kts 287°
2026-04-24 13:46 55.01462 15.18125 18003 ft 192 kts 287°
2026-04-24 13:46 55.01741 15.15848 18003 ft 192 kts 287°
2026-04-24 13:46 55.02020 15.13569 18003 ft 192 kts 287°
2026-04-24 13:46 55.02296 15.11300 18003 ft 192 kts 287°
2026-04-24 13:47 55.02572 15.09036 18004 ft 192 kts 287°
2026-04-24 13:47 55.02849 15.06756 18003 ft 192 kts 286°
2026-04-24 13:47 55.03126 15.04467 18004 ft 192 kts 287°
2026-04-24 13:47 55.03403 15.02185 18004 ft 192 kts 286°
2026-04-24 13:48 55.03679 14.99897 18017 ft 193 kts 286°
2026-04-24 13:48 55.03956 14.97610 18019 ft 193 kts 286°
2026-04-24 13:48 55.04231 14.95321 18019 ft 193 kts 286°
2026-04-24 13:48 55.04506 14.93037 18019 ft 193 kts 286°
2026-04-24 13:49 55.04779 14.90753 18016 ft 192 kts 286°
2026-04-24 13:49 55.05052 14.88475 18016 ft 192 kts 286°
2026-04-24 13:49 55.05323 14.86220 18015 ft 192 kts 286°
2026-04-24 13:49 55.05596 14.83935 18016 ft 192 kts 286°
2026-04-24 13:50 55.05869 14.81641 18016 ft 192 kts 286°
2026-04-24 13:50 55.06142 14.79357 18017 ft 192 kts 286°
2026-04-24 13:50 55.06414 14.77066 18016 ft 193 kts 286°
2026-04-24 13:50 55.06753 14.74819 18017 ft 191 kts 292°
2026-04-24 13:51 55.07190 14.72666 18016 ft 191 kts 292°
2026-04-24 13:51 55.07625 14.70477 18016 ft 191 kts 292°
2026-04-24 13:51 55.08057 14.68288 18016 ft 190 kts 292°
2026-04-24 13:51 55.08488 14.66099 18016 ft 190 kts 292°
2026-04-24 13:52 55.08920 14.63909 18016 ft 190 kts 292°
2026-04-24 13:52 55.09350 14.61721 18016 ft 190 kts 292°
2026-04-24 13:52 55.09779 14.59538 18015 ft 190 kts 292°
2026-04-24 13:52 55.10210 14.57349 18014 ft 190 kts 292°
2026-04-24 13:53 55.10638 14.55163 18013 ft 190 kts 292°
2026-04-24 13:53 55.11066 14.52979 18012 ft 190 kts 292°
2026-04-24 13:53 55.11494 14.50795 18011 ft 190 kts 292°
2026-04-24 13:53 55.11921 14.48608 18009 ft 190 kts 292°
2026-04-24 13:54 55.12348 14.46423 18007 ft 190 kts 292°
2026-04-24 13:54 55.12775 14.44235 18006 ft 190 kts 292°
2026-04-24 13:54 55.13196 14.42074 18005 ft 190 kts 292°
2026-04-24 13:54 55.13621 14.39883 18007 ft 190 kts 291°
2026-04-24 13:55 55.14045 14.37698 18005 ft 189 kts 291°
2026-04-24 13:55 55.14469 14.35523 18003 ft 189 kts 291°
2026-04-24 13:55 55.14892 14.33349 18002 ft 189 kts 291°
2026-04-24 13:55 55.15312 14.31178 17998 ft 188 kts 291°
2026-04-24 13:56 55.15733 14.29001 17919 ft 192 kts 291°
2026-04-24 13:56 55.16168 14.26761 17628 ft 195 kts 291°
2026-04-24 13:56 55.16599 14.24533 17338 ft 192 kts 291°
2026-04-24 13:56 55.17025 14.22322 17050 ft 191 kts 291°
2026-04-24 13:57 55.17448 14.20118 16765 ft 191 kts 291°
2026-04-24 13:57 55.17867 14.17947 16483 ft 190 kts 291°
2026-04-24 13:57 55.18289 14.15749 16204 ft 190 kts 291°
2026-04-24 13:57 55.18710 14.13555 15930 ft 190 kts 291°
2026-04-24 13:58 55.19130 14.11365 15652 ft 190 kts 291°
2026-04-24 13:58 55.19550 14.09170 15383 ft 189 kts 291°
2026-04-24 13:58 55.19970 14.06977 15114 ft 189 kts 291°
2026-04-24 13:58 55.20383 14.04820 14851 ft 189 kts 291°
2026-04-24 13:59 55.20799 14.02638 14587 ft 188 kts 291°
2026-04-24 13:59 55.21215 14.00467 14249 ft 186 kts 292°
2026-04-24 13:59 55.21626 13.98309 13899 ft 187 kts 292°
2026-04-24 13:59 55.22036 13.96148 13518 ft 187 kts 291°
2026-04-24 14:00 55.22441 13.94017 13131 ft 187 kts 291°
2026-04-24 14:00 55.22843 13.91853 12742 ft 186 kts 292°
2026-04-24 14:00 55.23257 13.89704 12356 ft 186 kts 292°
2026-04-24 14:00 55.23667 13.87555 11962 ft 185 kts 292°
2026-04-24 14:01 55.24070 13.85418 11589 ft 184 kts 292°
2026-04-24 14:01 55.24473 13.83286 11222 ft 184 kts 291°
2026-04-24 14:01 55.24852 13.81278 10874 ft 183 kts 291°
2026-04-24 14:01 55.25252 13.79158 10513 ft 183 kts 291°
2026-04-24 14:02 55.25649 13.77045 10168 ft 182 kts 291°
2026-04-24 14:02 55.26046 13.74937 9804 ft 182 kts 291°
2026-04-24 14:02 55.26441 13.72830 9409 ft 181 kts 291°
2026-04-24 14:02 55.26830 13.70756 9019 ft 181 kts 291°
2026-04-24 14:03 55.27224 13.68659 8640 ft 181 kts 291°
2026-04-24 14:03 55.27615 13.66568 8260 ft 180 kts 292°
2026-04-24 14:03 55.28006 13.64476 7875 ft 180 kts 292°
2026-04-24 14:03 55.28397 13.62389 7511 ft 180 kts 291°
2026-04-24 14:04 55.28786 13.60299 7143 ft 180 kts 292°
2026-04-24 14:04 55.29177 13.58202 6787 ft 181 kts 292°
2026-04-24 14:04 55.29569 13.56101 6424 ft 181 kts 292°
2026-04-24 14:06 55.29796 13.54878 6199 ft 180 kts 292°
2026-04-24 14:06 55.30181 13.52810 5806 ft 180 kts 291°
2026-04-24 14:06 55.30568 13.50721 5434 ft 180 kts 291°
2026-04-24 14:07 55.30957 13.48640 5060 ft 178 kts 292°
2026-04-24 14:07 55.31612 13.46841 4678 ft 175 kts 315°
2026-04-24 14:07 55.32574 13.45534 4293 ft 175 kts 323°
2026-04-24 14:07 55.33552 13.44273 3909 ft 174 kts 323°
2026-04-24 14:08 55.34523 13.43008 3531 ft 173 kts 322°
2026-04-24 14:08 55.35497 13.41758 3157 ft 173 kts 325°
2026-04-24 14:08 55.36634 13.41114 2973 ft 170 kts 350°
2026-04-24 14:08 55.37763 13.40865 2961 ft 157 kts 348°
2026-04-24 14:09 55.38805 13.40656 2937 ft 149 kts 349°
2026-04-24 14:09 55.39848 13.40434 2742 ft 153 kts 349°
2026-04-24 14:09 55.40927 13.40228 2526 ft 158 kts 350°
2026-04-24 14:09 55.42024 13.39998 2305 ft 158 kts 349°
2026-04-24 14:10 55.43107 13.39774 2099 ft 154 kts 349°
2026-04-24 14:10 55.44167 13.39560 1883 ft 152 kts 349°
2026-04-24 14:10 55.45211 13.39345 1685 ft 149 kts 349°
2026-04-24 14:10 55.46240 13.39123 1468 ft 147 kts 348°
2026-04-24 14:11 55.47260 13.38930 1268 ft 145 kts 350°
2026-04-24 14:11 55.48225 13.38736 1074 ft 138 kts 347°
2026-04-24 14:11 55.50105 13.38339 715 ft 135 kts 347°
2026-04-24 14:12 55.51026 13.38163 537 ft 120 kts 349°
2026-04-24 14:12 55.51699 13.38030 402 ft 86 kts 344°
2026-04-24 14:12 55.52281 13.37897 282 ft 82 kts 345°
2026-04-24 14:12 55.52744 13.37804 229 ft 48 kts 352°
2026-04-24 14:13 55.52964 13.37753 229 ft 15 kts 334°
2026-04-24 14:13 55.52977 13.37615 230 ft 10 kts 264°
2026-04-24 14:13 55.52973 13.37490 229 ft 6 kts 267°
2026-04-24 14:13 55.53021 13.37452 229 ft 18 kts 351°
2026-04-24 14:14 55.53167 13.37421 229 ft 24 kts 355°
2026-04-24 14:14 55.53339 13.37383 229 ft 24 kts 353°
2026-04-24 14:14 55.53468 13.37110 230 ft 23 kts 256°
2026-04-24 14:15 55.53431 13.36844 230 ft 22 kts 256°
2026-04-24 14:15 55.53415 13.36576 230 ft 22 kts 265°
2026-04-24 14:15 55.53455 13.36470 230 ft 15 kts 353°
2026-04-24 14:15 55.53519 13.36428 230 ft 6 kts 238°
2026-04-24 14:16 55.53512 13.36421 230 ft 0 kts 176°